Location: Unspecified
(52.4292°N, 19.3359°E)
Time: 23:30:20
(UTC+02:00)

SR - Pass Details

Date: 30 May 2024
Orbit: 580 x 858 km, 66.7° (Epoch: 12 June)

Event Time Altitude Azimuth Distance (km) Brightness Sun altitude
Rises 20:44:22 0° 300° (WNW) 3,013 ? 0.3°
Reaches altitude 10° 20:47:57 10° 327° (NNW) 2,038 ? -0.2°
Maximum altitude 20:50:11 13° 357° (N) 1,790 ? -0.4°
Drops below altitude 10° 20:52:22 10° 27° (NNE) 1,975 ? -0.7°
Sets 20:55:44 0° 55° (NE) 2,841 ? -1.1°
